sat.trackr.live / text

‹ back to catalog

2025-055G

NORAD 63297 · 2025-055G

PAYLOAD ACTIVE UNKNOWN

§ Identity

Operator
Country
PRC
Launch date
2025-03-17
Launch site
JSC
Launch vehicle
Mass (kg)
RCS (m²)

External: N2YO · Heavens-Above · Gunter

§ Orbital elements

Epoch: 2026-05-25T05:14:06.658368Z

Period
94.45 min
Inclination
97.6447°
Eccentricity
0.0007944
Mean motion
15.24569590 rev/d
Perigee alt
486.6 km
Apogee alt
497.5 km
Semi-major
6,870.2 km
B*
6.2557e-4
RAAN
287.9005°
Arg perigee
225.9441°
Mean anomaly
134.1142°
Rev number
6,573

§ Raw data

2025-055G1 63297U 25055G   26145.21813262  .00015367  00000+0  62557-3 0  99962 63297  97.6447 287.9005 0007944 225.9441 134.1142 15.24569590 65731

JSON: /api/v1/satellites/63297 · /tle

For live sub-satellite position, see the globe view (requires WebGL).

§ Visibility from observer

Set your observer location to see the next 7 days of passes ≥ 10°. The values pass through the URL so the page stays shareable.

No JS? Fill the form by hand. The geolocation button needs JavaScript.